Location: Bridalveil Fall
(37.7166°N, 119.6468°W)
Time: 14:54:12
(UTC+00:00)

NOAA 12 - Pass Details

Date: 11 December 2025
Orbit: 792 x 813 km, 98.6° (Epoch: 18 May)

Event Time Altitude Azimuth Distance (km) Brightness Sun altitude
Rises 13:14:03 0° 10° (N) 3,325 7.3 -21.1°
Reaches altitude 10° 13:16:24 10° 9° (N) 2,387 6.5 -20.6°
Maximum altitude 13:21:39 72° 286° (WNW) 841 3.9 -19.6°
Drops below altitude 10° 13:26:50 10° 202° (SSW) 2,359 6.4 -18.6°
Sets 13:29:09 0° 201° (SSW) 3,282 7.2 -18.2°
